Year,Month,Day,Hour,Minute,Value (Times are PST for windgust in km/hr)
2017,05,22,00,17,1.60
2017,05,22,00,18,3.20
2017,05,22,00,19,1.60
2017,05,22,00,44,3.20
2017,05,22,00,45,3.20
2017,05,22,00,46,1.60
2017,05,22,00,48,3.20
2017,05,22,00,49,3.20
2017,05,22,00,50,1.60
2017,05,22,00,51,1.60
2017,05,22,00,52,3.20
2017,05,22,00,53,3.20
2017,05,22,00,57,1.60
2017,05,22,01,01,1.60
2017,05,22,01,04,1.60
2017,05,22,07,46,4.80
2017,05,22,07,47,4.80
2017,05,22,07,48,6.40
2017,05,22,07,49,9.60
2017,05,22,07,50,8.10
2017,05,22,07,51,6.40
2017,05,22,07,56,1.60
2017,05,22,07,58,1.60
2017,05,22,08,02,3.20
2017,05,22,08,03,4.80
2017,05,22,08,04,9.60
2017,05,22,08,05,8.10
2017,05,22,08,06,9.60
2017,05,22,08,07,9.60
2017,05,22,08,08,8.10
2017,05,22,08,09,11.30
2017,05,22,08,10,8.10
2017,05,22,08,11,8.10
2017,05,22,08,12,11.30
2017,05,22,08,13,11.30
2017,05,22,08,14,9.60
2017,05,22,08,15,16.10
2017,05,22,08,16,9.60
2017,05,22,08,17,9.60
2017,05,22,08,18,9.60
2017,05,22,08,19,9.60
2017,05,22,08,20,11.30
2017,05,22,08,21,8.10
2017,05,22,08,22,8.10
2017,05,22,08,23,9.60
2017,05,22,08,24,8.10
2017,05,22,08,25,14.50
2017,05,22,08,26,8.10
2017,05,22,08,27,9.60
2017,05,22,08,28,16.10
2017,05,22,08,29,14.50
2017,05,22,08,30,4.80
2017,05,22,08,31,9.60
2017,05,22,08,32,9.60
2017,05,22,08,33,8.10
2017,05,22,08,34,9.60
2017,05,22,08,35,11.30
2017,05,22,08,36,14.50
2017,05,22,08,37,11.30
2017,05,22,08,38,8.10
2017,05,22,08,39,9.60
2017,05,22,08,40,12.90
2017,05,22,08,41,12.90
2017,05,22,08,42,8.10
2017,05,22,08,43,16.10
2017,05,22,08,44,17.70
2017,05,22,08,45,14.50
2017,05,22,08,46,11.30
2017,05,22,08,47,14.50
2017,05,22,08,48,11.30
2017,05,22,08,49,16.10
2017,05,22,08,50,16.10
2017,05,22,08,51,9.60
2017,05,22,08,52,14.50
2017,05,22,08,53,9.60
2017,05,22,08,54,8.10
2017,05,22,08,55,11.30
2017,05,22,08,56,16.10
2017,05,22,08,57,16.10
2017,05,22,08,58,17.70
2017,05,22,08,59,12.90
2017,05,22,09,00,14.50
2017,05,22,09,01,11.30
2017,05,22,09,02,14.50
2017,05,22,09,03,8.10
2017,05,22,09,04,11.30
2017,05,22,09,05,8.10
2017,05,22,09,06,16.10
2017,05,22,09,07,19.30
2017,05,22,09,08,17.70
2017,05,22,09,09,6.40
2017,05,22,09,10,11.30
2017,05,22,09,11,24.20
2017,05,22,09,12,25.70
2017,05,22,09,13,19.30
2017,05,22,09,14,20.90
2017,05,22,09,15,22.50
2017,05,22,09,16,19.30
2017,05,22,09,17,22.50
2017,05,22,09,18,27.40
2017,05,22,09,19,27.40
2017,05,22,09,20,17.70
2017,05,22,09,21,17.70
2017,05,22,09,22,16.10
2017,05,22,09,23,14.50
2017,05,22,09,24,16.10
2017,05,22,09,25,14.50
2017,05,22,09,26,9.60
2017,05,22,09,27,27.40
2017,05,22,09,28,30.60
2017,05,22,09,29,24.20
2017,05,22,09,30,22.50
2017,05,22,09,31,16.10
2017,05,22,09,32,20.90
2017,05,22,09,33,17.70
2017,05,22,09,34,11.30
2017,05,22,09,35,11.30
2017,05,22,09,36,20.90
2017,05,22,09,37,12.90
2017,05,22,09,38,11.30
2017,05,22,09,39,22.50
2017,05,22,09,40,25.70
2017,05,22,09,41,22.50
2017,05,22,09,42,20.90
2017,05,22,09,43,25.70
2017,05,22,09,44,24.20
2017,05,22,09,45,24.20
2017,05,22,09,46,17.70
2017,05,22,09,47,14.50
2017,05,22,09,48,8.10
2017,05,22,09,49,11.30
2017,05,22,09,50,17.70
2017,05,22,09,51,19.30
2017,05,22,09,52,14.50
2017,05,22,09,53,22.50
2017,05,22,09,54,19.30
2017,05,22,09,55,19.30
2017,05,22,09,56,19.30
2017,05,22,09,57,22.50
2017,05,22,09,58,22.50
2017,05,22,09,59,19.30
2017,05,22,10,00,25.70
2017,05,22,10,01,19.30
2017,05,22,10,02,17.70
2017,05,22,10,03,24.20
2017,05,22,10,04,16.10
2017,05,22,10,05,19.30
2017,05,22,10,06,19.30
2017,05,22,10,07,20.90
2017,05,22,10,08,24.20
2017,05,22,10,09,27.40
2017,05,22,10,10,20.90
2017,05,22,10,11,14.50
2017,05,22,10,12,24.20
2017,05,22,10,13,17.70
2017,05,22,10,14,14.50
2017,05,22,10,15,14.50
2017,05,22,10,16,16.10
2017,05,22,10,17,11.30
2017,05,22,10,18,20.90
2017,05,22,10,19,24.20
2017,05,22,10,20,16.10
2017,05,22,10,21,17.70
2017,05,22,10,22,16.10
2017,05,22,10,23,12.90
2017,05,22,10,24,14.50
2017,05,22,10,25,24.20
2017,05,22,10,26,19.30
2017,05,22,10,27,19.30
2017,05,22,10,28,19.30
2017,05,22,10,29,17.70
2017,05,22,10,30,16.10
2017,05,22,10,31,17.70
2017,05,22,10,32,16.10
2017,05,22,10,33,17.70
2017,05,22,10,34,20.90
2017,05,22,10,35,17.70
2017,05,22,10,36,22.50
2017,05,22,10,37,20.90
2017,05,22,10,38,17.70
2017,05,22,10,39,17.70
2017,05,22,10,40,19.30
2017,05,22,10,41,16.10
2017,05,22,10,42,11.30
2017,05,22,10,43,20.90
2017,05,22,10,44,19.30
2017,05,22,10,45,17.70
2017,05,22,10,46,20.90
2017,05,22,10,47,11.30
2017,05,22,10,48,16.10
2017,05,22,10,49,14.50
2017,05,22,10,50,16.10
2017,05,22,10,51,19.30
2017,05,22,10,52,16.10
2017,05,22,10,53,11.30
2017,05,22,10,54,9.60
2017,05,22,10,55,12.90
2017,05,22,10,56,16.10
2017,05,22,10,57,19.30
2017,05,22,10,58,17.70
2017,05,22,10,59,12.90
2017,05,22,11,00,16.10
2017,05,22,11,01,14.50
2017,05,22,11,02,9.60
2017,05,22,11,03,11.30
2017,05,22,11,04,16.10
2017,05,22,11,05,17.70
2017,05,22,11,06,19.30
2017,05,22,11,07,14.50
2017,05,22,11,08,11.30
2017,05,22,11,09,14.50
2017,05,22,11,10,14.50
2017,05,22,11,11,11.30
2017,05,22,11,12,16.10
2017,05,22,11,13,16.10
2017,05,22,11,14,11.30
2017,05,22,11,15,16.10
2017,05,22,11,16,14.50
2017,05,22,11,17,16.10
2017,05,22,11,18,14.50
2017,05,22,11,19,17.70
2017,05,22,11,20,12.90
2017,05,22,11,21,8.10
2017,05,22,11,22,6.40
2017,05,22,11,23,11.30
2017,05,22,11,24,8.10
2017,05,22,11,25,17.70
2017,05,22,11,26,14.50
2017,05,22,11,27,17.70
2017,05,22,11,28,16.10
2017,05,22,11,29,12.90
2017,05,22,11,30,11.30
2017,05,22,11,31,9.60
2017,05,22,11,32,8.10
2017,05,22,11,33,11.30
2017,05,22,11,34,4.80
2017,05,22,11,35,9.60
2017,05,22,11,36,9.60
2017,05,22,11,37,11.30
2017,05,22,11,38,11.30
2017,05,22,11,39,11.30
2017,05,22,11,40,9.60
2017,05,22,11,41,6.40
2017,05,22,11,42,9.60
2017,05,22,11,43,8.10
2017,05,22,11,45,4.80
2017,05,22,11,46,8.10
2017,05,22,11,47,11.30
2017,05,22,11,48,11.30
2017,05,22,11,49,11.30
2017,05,22,11,50,11.30
2017,05,22,11,51,8.10
2017,05,22,11,52,8.10
2017,05,22,11,53,6.40
2017,05,22,11,54,3.20
2017,05,22,11,55,8.10
2017,05,22,11,56,6.40
2017,05,22,11,58,6.40
2017,05,22,11,59,6.40
2017,05,22,12,00,8.10
2017,05,22,12,01,4.80
2017,05,22,12,03,6.40
2017,05,22,12,04,6.40
2017,05,22,12,05,1.60
2017,05,22,12,07,4.80
2017,05,22,12,08,3.20
2017,05,22,12,09,1.60
2017,05,22,12,10,4.80
2017,05,22,12,11,4.80
2017,05,22,12,12,6.40
2017,05,22,12,13,8.10
2017,05,22,12,14,9.60
2017,05,22,12,15,4.80
2017,05,22,12,16,8.10
2017,05,22,12,17,8.10
2017,05,22,12,18,6.40
2017,05,22,12,19,3.20
2017,05,22,12,20,4.80
2017,05,22,12,21,6.40
2017,05,22,12,22,1.60
2017,05,22,12,23,3.20
2017,05,22,12,25,1.60
2017,05,22,12,26,1.60
2017,05,22,12,28,3.20
2017,05,22,12,30,6.40
2017,05,22,12,31,3.20
2017,05,22,12,32,8.10
2017,05,22,12,33,11.30
2017,05,22,12,34,8.10
2017,05,22,12,35,6.40
2017,05,22,12,36,6.40
2017,05,22,12,37,6.40
2017,05,22,12,38,3.20
2017,05,22,12,40,4.80
2017,05,22,12,41,14.50
2017,05,22,12,42,16.10
2017,05,22,12,43,9.60
2017,05,22,12,44,4.80
2017,05,22,12,45,3.20
2017,05,22,12,47,6.40
2017,05,22,12,48,4.80
2017,05,22,12,49,1.60
2017,05,22,12,50,4.80
2017,05,22,12,51,9.60
2017,05,22,12,52,9.60
2017,05,22,12,53,3.20
2017,05,22,12,54,8.10
2017,05,22,12,55,8.10
2017,05,22,12,56,3.20
2017,05,22,12,57,4.80
2017,05,22,12,59,1.60
2017,05,22,13,00,4.80
2017,05,22,13,01,6.40
2017,05,22,13,02,4.80
2017,05,22,13,03,11.30
2017,05,22,13,04,6.40
2017,05,22,13,05,8.10
2017,05,22,13,06,9.60
2017,05,22,13,07,11.30
2017,05,22,13,08,16.10
2017,05,22,13,09,14.50
2017,05,22,13,10,11.30
2017,05,22,13,11,8.10
2017,05,22,13,12,8.10
2017,05,22,13,13,11.30
2017,05,22,13,14,9.60
2017,05,22,13,15,9.60
2017,05,22,13,16,8.10
2017,05,22,13,17,11.30
2017,05,22,13,18,12.90
2017,05,22,13,19,8.10
2017,05,22,13,20,11.30
2017,05,22,13,21,9.60
2017,05,22,13,22,9.60
2017,05,22,13,23,9.60
2017,05,22,13,24,11.30
2017,05,22,13,25,14.50
2017,05,22,13,26,12.90
2017,05,22,13,27,14.50
2017,05,22,13,28,11.30
2017,05,22,13,29,8.10
2017,05,22,13,30,11.30
2017,05,22,13,31,9.60
2017,05,22,13,32,8.10
2017,05,22,13,33,9.60
2017,05,22,13,34,8.10
2017,05,22,13,35,4.80
2017,05,22,13,36,9.60
2017,05,22,13,37,9.60
2017,05,22,13,38,11.30
2017,05,22,13,39,6.40
2017,05,22,13,40,8.10
2017,05,22,13,41,9.60
2017,05,22,13,42,9.60
2017,05,22,13,43,1.60
2017,05,22,13,44,4.80
2017,05,22,13,45,6.40
2017,05,22,13,46,8.10
2017,05,22,13,47,9.60
2017,05,22,13,48,8.10
2017,05,22,13,49,8.10
2017,05,22,13,50,6.40
2017,05,22,13,51,9.60
2017,05,22,13,52,6.40
2017,05,22,13,53,6.40
2017,05,22,13,54,6.40
2017,05,22,13,55,6.40
2017,05,22,13,56,6.40
2017,05,22,13,57,6.40
2017,05,22,13,58,3.20
2017,05,22,13,59,4.80
2017,05,22,14,00,4.80
2017,05,22,14,01,8.10
2017,05,22,14,02,4.80
2017,05,22,14,03,6.40
2017,05,22,14,04,6.40
2017,05,22,14,05,6.40
2017,05,22,14,06,4.80
2017,05,22,14,07,6.40
2017,05,22,14,08,3.20
2017,05,22,14,10,1.60
2017,05,22,14,11,4.80
2017,05,22,14,12,4.80
2017,05,22,14,13,4.80
2017,05,22,14,14,14.50
2017,05,22,14,15,16.10
2017,05,22,14,16,11.30
2017,05,22,14,17,14.50
2017,05,22,14,18,11.30
2017,05,22,14,19,11.30
2017,05,22,14,20,16.10
2017,05,22,14,21,12.90
2017,05,22,14,22,8.10
2017,05,22,14,23,11.30
2017,05,22,14,24,8.10
2017,05,22,14,25,9.60
2017,05,22,14,26,8.10
2017,05,22,14,27,3.20
2017,05,22,14,28,3.20
2017,05,22,14,29,9.60
2017,05,22,14,30,11.30
2017,05,22,14,31,11.30
2017,05,22,14,32,11.30
2017,05,22,14,33,8.10
2017,05,22,14,34,1.60
2017,05,22,14,35,6.40
2017,05,22,14,36,6.40
2017,05,22,14,37,3.20
2017,05,22,14,38,12.90
2017,05,22,14,39,14.50
2017,05,22,14,40,14.50
2017,05,22,14,41,11.30
2017,05,22,14,42,9.60
2017,05,22,14,43,8.10
2017,05,22,14,44,11.30
2017,05,22,14,45,12.90
2017,05,22,14,46,9.60
2017,05,22,14,47,14.50
2017,05,22,14,48,9.60
2017,05,22,14,49,14.50
2017,05,22,14,50,14.50
2017,05,22,14,51,11.30
2017,05,22,14,52,14.50
2017,05,22,14,53,11.30
2017,05,22,14,54,12.90
2017,05,22,14,55,9.60
2017,05,22,14,56,4.80
2017,05,22,14,57,6.40
2017,05,22,14,58,4.80
2017,05,22,14,59,14.50
2017,05,22,15,00,11.30
2017,05,22,15,01,6.40
2017,05,22,15,02,3.20
2017,05,22,15,03,8.10
2017,05,22,15,04,8.10
2017,05,22,15,05,9.60
2017,05,22,15,06,8.10
2017,05,22,15,07,6.40
2017,05,22,15,08,9.60
2017,05,22,15,09,11.30
2017,05,22,15,10,8.10
2017,05,22,15,11,11.30
2017,05,22,15,12,9.60
2017,05,22,15,13,8.10
2017,05,22,15,14,6.40
2017,05,22,15,15,9.60
2017,05,22,15,16,6.40
2017,05,22,15,17,6.40
2017,05,22,15,18,4.80
2017,05,22,15,19,3.20
2017,05,22,15,20,3.20
2017,05,22,15,21,6.40
2017,05,22,15,22,6.40
2017,05,22,15,23,6.40
2017,05,22,15,24,8.10
2017,05,22,15,25,8.10
2017,05,22,15,26,11.30
2017,05,22,15,27,11.30
2017,05,22,15,28,11.30
2017,05,22,15,29,11.30
2017,05,22,15,30,9.60
2017,05,22,15,31,9.60
2017,05,22,15,32,11.30
2017,05,22,15,33,9.60
2017,05,22,15,34,11.30
2017,05,22,15,35,9.60
2017,05,22,15,36,11.30
2017,05,22,15,37,9.60
2017,05,22,15,38,8.10
2017,05,22,15,39,8.10
2017,05,22,15,40,9.60
2017,05,22,15,41,11.30
2017,05,22,15,42,11.30
2017,05,22,15,43,8.10
2017,05,22,15,44,9.60
2017,05,22,15,45,9.60
2017,05,22,15,46,11.30
2017,05,22,15,47,8.10
2017,05,22,15,48,9.60
2017,05,22,15,49,14.50
2017,05,22,15,50,11.30
2017,05,22,15,51,12.90
2017,05,22,15,52,11.30
2017,05,22,15,53,9.60
2017,05,22,15,54,11.30
2017,05,22,15,55,11.30
2017,05,22,15,56,9.60
2017,05,22,15,57,6.40
2017,05,22,15,58,8.10
2017,05,22,15,59,4.80
2017,05,22,16,00,6.40
2017,05,22,16,01,6.40
2017,05,22,16,02,8.10
2017,05,22,16,03,4.80
2017,05,22,16,04,6.40
2017,05,22,16,05,8.10
2017,05,22,16,06,9.60
2017,05,22,16,07,9.60
2017,05,22,16,08,9.60
2017,05,22,16,09,8.10
2017,05,22,16,10,4.80
2017,05,22,16,11,9.60
2017,05,22,16,12,9.60
2017,05,22,16,13,8.10
2017,05,22,16,14,6.40
2017,05,22,16,15,8.10
2017,05,22,16,16,6.40
2017,05,22,16,17,6.40
2017,05,22,16,18,8.10
2017,05,22,16,19,8.10
2017,05,22,16,20,4.80
2017,05,22,16,21,9.60
2017,05,22,16,22,4.80
2017,05,22,16,23,6.40
2017,05,22,16,24,6.40
2017,05,22,16,25,8.10
2017,05,22,16,26,8.10
2017,05,22,16,27,6.40
2017,05,22,16,28,6.40
2017,05,22,16,29,9.60
2017,05,22,16,30,9.60
2017,05,22,16,31,8.10
2017,05,22,16,32,9.60
2017,05,22,16,33,11.30
2017,05,22,16,34,8.10
2017,05,22,16,35,4.80
2017,05,22,16,36,6.40
2017,05,22,16,37,6.40
2017,05,22,16,38,4.80
2017,05,22,16,39,8.10
2017,05,22,16,40,8.10
2017,05,22,16,41,8.10
2017,05,22,16,42,4.80
2017,05,22,16,43,8.10
2017,05,22,16,44,9.60
2017,05,22,16,45,11.30
2017,05,22,16,46,9.60
2017,05,22,16,47,9.60
2017,05,22,16,48,12.90
2017,05,22,16,49,12.90
2017,05,22,16,50,9.60
2017,05,22,16,51,11.30
2017,05,22,16,52,9.60
2017,05,22,16,53,14.50
2017,05,22,16,54,9.60
2017,05,22,16,55,11.30
2017,05,22,16,56,11.30
2017,05,22,16,57,11.30
2017,05,22,16,58,8.10
2017,05,22,16,59,12.90
2017,05,22,17,00,11.30
2017,05,22,17,01,9.60
2017,05,22,17,02,9.60
2017,05,22,17,03,6.40
2017,05,22,17,04,8.10
2017,05,22,17,05,8.10
2017,05,22,17,06,11.30
2017,05,22,17,07,9.60
2017,05,22,17,08,9.60
2017,05,22,17,09,8.10
2017,05,22,17,10,9.60
2017,05,22,17,11,9.60
2017,05,22,17,12,8.10
2017,05,22,17,13,6.40
2017,05,22,17,14,8.10
2017,05,22,17,15,9.60
2017,05,22,17,16,9.60
2017,05,22,17,17,8.10
2017,05,22,17,18,6.40
2017,05,22,17,19,6.40
2017,05,22,17,20,4.80
2017,05,22,17,21,8.10
2017,05,22,17,22,8.10
2017,05,22,17,23,9.60
2017,05,22,17,24,8.10
2017,05,22,17,25,4.80
2017,05,22,17,26,9.60
2017,05,22,17,27,6.40
2017,05,22,17,28,4.80
2017,05,22,17,29,3.20
2017,05,22,17,30,8.10
2017,05,22,17,31,4.80
2017,05,22,17,32,6.40
2017,05,22,17,33,9.60
2017,05,22,17,34,8.10
2017,05,22,17,35,4.80
2017,05,22,17,36,4.80
2017,05,22,17,37,4.80
2017,05,22,17,38,6.40
2017,05,22,17,39,4.80
2017,05,22,17,40,9.60
2017,05,22,17,41,8.10
2017,05,22,17,42,8.10
2017,05,22,17,43,6.40
2017,05,22,17,44,6.40
2017,05,22,17,45,9.60
2017,05,22,17,46,8.10
2017,05,22,17,47,9.60
2017,05,22,17,48,8.10
2017,05,22,17,49,8.10
2017,05,22,17,50,12.90
2017,05,22,17,51,9.60
2017,05,22,17,52,6.40
2017,05,22,17,53,8.10
2017,05,22,17,54,4.80
2017,05,22,17,55,1.60
2017,05,22,17,56,1.60
2017,05,22,17,57,8.10
2017,05,22,17,58,1.60
2017,05,22,17,59,6.40
2017,05,22,18,00,8.10
2017,05,22,18,01,8.10
2017,05,22,18,02,8.10
2017,05,22,18,03,8.10
2017,05,22,18,04,9.60
2017,05,22,18,05,9.60
2017,05,22,18,06,8.10
2017,05,22,18,07,9.60
2017,05,22,18,08,6.40
2017,05,22,18,09,6.40
2017,05,22,18,10,6.40
2017,05,22,18,11,8.10
2017,05,22,18,12,4.80
2017,05,22,18,13,4.80
2017,05,22,18,14,8.10
2017,05,22,18,15,9.60
2017,05,22,18,16,8.10
2017,05,22,18,17,8.10
2017,05,22,18,18,4.80
2017,05,22,18,19,6.40
2017,05,22,18,20,8.10
2017,05,22,18,21,4.80
2017,05,22,18,22,6.40
2017,05,22,18,23,8.10
2017,05,22,18,24,4.80
2017,05,22,18,25,6.40
2017,05,22,18,26,6.40
2017,05,22,18,27,6.40
2017,05,22,18,28,4.80
2017,05,22,18,29,6.40
2017,05,22,18,30,4.80
2017,05,22,18,31,4.80
2017,05,22,18,32,4.80
2017,05,22,18,33,4.80
2017,05,22,18,34,3.20
2017,05,22,18,35,8.10
2017,05,22,18,36,6.40
2017,05,22,18,37,6.40
2017,05,22,18,38,8.10
2017,05,22,18,39,9.60
2017,05,22,18,40,11.30
2017,05,22,18,41,6.40
2017,05,22,18,42,6.40
2017,05,22,18,43,6.40
2017,05,22,18,44,4.80
2017,05,22,18,45,1.60
2017,05,22,18,46,4.80
2017,05,22,18,47,1.60
2017,05,22,18,48,8.10
2017,05,22,18,49,4.80
2017,05,22,18,50,9.60
2017,05,22,18,51,1.60
2017,05,22,18,52,3.20
2017,05,22,18,53,6.40
2017,05,22,18,54,8.10
2017,05,22,18,55,1.60
2017,05,22,18,56,1.60
2017,05,22,18,57,3.20
2017,05,22,18,58,3.20
2017,05,22,18,59,1.60
2017,05,22,19,00,4.80
2017,05,22,19,01,1.60
2017,05,22,19,02,3.20
2017,05,22,19,03,3.20
2017,05,22,19,04,3.20
2017,05,22,19,05,4.80
2017,05,22,19,06,6.40
2017,05,22,19,07,14.50
2017,05,22,19,08,12.90
2017,05,22,19,09,8.10
2017,05,22,19,10,9.60
2017,05,22,19,11,16.10
2017,05,22,19,12,12.90
2017,05,22,19,13,6.40
2017,05,22,19,14,9.60
2017,05,22,19,15,9.60
2017,05,22,19,16,9.60
2017,05,22,19,17,8.10
2017,05,22,19,18,6.40
2017,05,22,19,19,6.40
2017,05,22,19,20,1.60
2017,05,22,19,21,6.40
2017,05,22,19,28,3.20
2017,05,22,19,29,6.40
2017,05,22,19,30,8.10
2017,05,22,19,31,11.30
2017,05,22,19,32,6.40
2017,05,22,19,33,8.10
2017,05,22,19,34,8.10
2017,05,22,19,35,9.60
2017,05,22,19,36,11.30
2017,05,22,19,37,9.60
2017,05,22,19,38,14.50
2017,05,22,19,39,9.60
2017,05,22,19,40,11.30
2017,05,22,19,41,3.20
2017,05,22,19,42,6.40
2017,05,22,19,43,8.10
2017,05,22,19,44,6.40
2017,05,22,19,45,4.80
2017,05,22,19,46,8.10
2017,05,22,19,47,6.40
2017,05,22,19,48,9.60
2017,05,22,19,49,8.10
2017,05,22,19,50,9.60
2017,05,22,19,51,6.40
2017,05,22,19,52,9.60
2017,05,22,19,53,9.60
2017,05,22,19,54,9.60
2017,05,22,19,55,14.50
2017,05,22,19,56,14.50
2017,05,22,19,57,11.30
2017,05,22,19,58,9.60
2017,05,22,19,59,6.40
2017,05,22,20,00,14.50
2017,05,22,20,01,8.10
2017,05,22,20,02,9.60
2017,05,22,20,03,9.60
2017,05,22,20,04,8.10
2017,05,22,20,05,9.60
2017,05,22,20,06,11.30
2017,05,22,20,07,8.10
2017,05,22,20,08,8.10
2017,05,22,20,09,14.50
2017,05,22,20,10,11.30
2017,05,22,20,11,14.50
2017,05,22,20,12,4.80
2017,05,22,20,13,11.30
2017,05,22,20,14,6.40
2017,05,22,20,15,16.10
2017,05,22,20,16,9.60
2017,05,22,20,17,11.30
2017,05,22,20,18,16.10
2017,05,22,20,19,6.40
2017,05,22,20,20,8.10
2017,05,22,20,21,8.10
2017,05,22,20,22,16.10
2017,05,22,20,23,14.50
2017,05,22,20,24,14.50
2017,05,22,20,25,8.10
2017,05,22,20,26,9.60
2017,05,22,20,27,8.10
2017,05,22,20,28,8.10
2017,05,22,20,29,6.40
2017,05,22,20,30,8.10
2017,05,22,20,31,11.30
2017,05,22,20,32,9.60
2017,05,22,20,33,6.40
2017,05,22,20,34,4.80
2017,05,22,20,35,4.80
2017,05,22,20,36,3.20
2017,05,22,20,37,3.20
2017,05,22,20,38,1.60
2017,05,22,20,39,1.60
2017,05,22,20,40,4.80
2017,05,22,20,41,4.80
2017,05,22,20,42,3.20
2017,05,22,20,43,3.20
2017,05,22,20,44,1.60
2017,05,22,20,45,4.80
2017,05,22,20,46,1.60
2017,05,22,20,47,4.80
2017,05,22,20,48,1.60
2017,05,22,20,49,3.20
2017,05,22,20,55,1.60
2017,05,22,20,56,1.60
2017,05,22,20,57,4.80
2017,05,22,20,58,4.80
2017,05,22,20,59,4.80
2017,05,22,21,00,3.20
2017,05,22,21,01,4.80
2017,05,22,21,02,6.40
2017,05,22,21,03,8.10
2017,05,22,21,04,8.10
2017,05,22,21,05,8.10
2017,05,22,21,06,4.80
2017,05,22,21,07,6.40
2017,05,22,21,08,4.80
2017,05,22,21,09,4.80
2017,05,22,21,10,3.20
2017,05,22,21,11,3.20
2017,05,22,21,12,3.20
2017,05,22,21,13,1.60
2017,05,22,21,14,4.80
2017,05,22,21,20,1.60
2017,05,22,21,21,4.80
2017,05,22,21,23,3.20
2017,05,22,21,24,3.20
2017,05,22,21,25,3.20
2017,05,22,21,26,3.20
2017,05,22,21,27,1.60
2017,05,22,21,28,3.20
2017,05,22,21,29,3.20
2017,05,22,21,30,3.20
2017,05,22,21,31,1.60
2017,05,22,21,33,3.20
2017,05,22,21,34,3.20
2017,05,22,21,35,4.80
2017,05,22,21,36,4.80
2017,05,22,21,37,3.20
2017,05,22,21,38,8.10
2017,05,22,21,39,6.40
2017,05,22,21,40,4.80
2017,05,22,21,41,1.60
2017,05,22,21,44,4.80
2017,05,22,21,45,4.80
2017,05,22,21,46,4.80
2017,05,22,21,47,3.20
2017,05,22,21,48,3.20
2017,05,22,21,49,6.40
2017,05,22,21,50,4.80
2017,05,22,21,51,3.20
2017,05,22,21,52,4.80
2017,05,22,21,53,4.80
2017,05,22,21,54,1.60
2017,05,22,21,55,3.20
2017,05,22,21,56,3.20
2017,05,22,21,57,4.80
2017,05,22,22,00,4.80
2017,05,22,22,01,4.80
2017,05,22,22,02,1.60
2017,05,22,22,12,1.60
2017,05,22,22,16,3.20
2017,05,22,22,17,6.40
2017,05,22,22,18,3.20
2017,05,22,22,19,1.60
2017,05,22,22,21,4.80
2017,05,22,22,22,1.60
2017,05,22,22,32,3.20
2017,05,22,22,33,3.20
2017,05,22,22,34,1.60
2017,05,22,22,53,1.60
2017,05,22,22,56,1.60
2017,05,22,22,58,6.40
2017,05,22,22,59,3.20
2017,05,22,23,01,3.20
2017,05,22,23,07,1.60
2017,05,22,23,08,1.60
2017,05,22,23,20,1.60
2017,05,22,23,21,3.20
2017,05,22,23,25,3.20
2017,05,22,23,32,3.20
2017,05,22,23,33,3.20
2017,05,22,23,35,1.60
2017,05,22,23,37,3.20
2017,05,22,23,47,3.20
2017,05,22,23,48,4.80
2017,05,22,23,49,3.20
2017,05,22,23,50,3.20
2017,05,22,23,52,1.60
2017,05,22,23,53,1.60
2017,05,22,23,55,1.60
2017,05,22,23,56,3.20
2017,05,22,23,57,1.60
2017,05,22,23,58,4.80
2017,05,22,23,59,3.20
